Regional Weather Roundup
Issued by NWS

Home | Current Version | Previous Version | Text Only | Print | Product List | Glossary On
Versions: 1 2 3 4 5 6 7 8 9 10 11 12 13 14 15 16 17 18 19 20 21 22 23 24 25 26 27 28 29 30 31 32 33 34 35 36 37 38 39 40 41 42 43 44 45 46 47 48 49 50
769
ASUS43 KOAX 121410
RWRNE

WEATHER ROUNDUP FOR NEBRASKA
NATIONAL WEATHER SERVICE OMAHA NE
800 AM CST FRI FEB 12 2016

NOTES: SATELLITE DATA IS BEING USED TO AUGMENT CLOUD COVER ABOVE
       12000 FEET.
       "FAIR" INDICATES FEW OR NO CLOUDS BELOW 12,000 FEET WITH NO
       SIGNIFICANT WEATHER AND/OR OBSTRUCTIONS TO VISIBILITY.

  * THESE STATIONS DO NOT REPORT WEATHER SUCH AS RAIN...SNOW OR FOG.

NEZ001>004-019>022-054>056-121500-
NEBRASKA PANHANDLE

CITY           SKY/WX    TMP DP  RH WIND       PRES   REMARKS
SCOTTSBLUFF    CLOUDY    32  28  85 CALM      30.30R
ALLIANCE       FOG       26  25  96 NE9       30.31R VSB 1/2 WCI  17
CHADRON        CLOUDY    31  30  96 E7        30.35R FOG     WCI  24
KIMBALL        CLOUDY    35  28  76 NW6       30.30R WCI  29
SIDNEY         CLOUDY    30  27  88 W8        30.30R WCI  22
$$

NEZ057>060-069>072-079>082-121500-
SOUTHWEST NEBRASKA

CITY           SKY/WX    TMP DP  RH WIND       PRES   REMARKS
NORTH PLATTE   CLOUDY    33  29  85 N3        30.35R
IMPERIAL       CLOUDY    24  21  88 CALM      30.32R
LEXINGTON      CLOUDY    32  29  88 N7        30.37R WCI  26
MCCOOK         CLOUDY    24  23  96 W7        30.36R WCI  16
OGALLALA       CLOUDY    27  25  92 E3        30.33R
$$

NEZ005>010-023>029-035>040-094-121500-
NORTH CENTRAL NEBRASKA

CITY           SKY/WX    TMP DP  RH WIND       PRES   REMARKS
VALENTINE      CLOUDY    24  22  91 N12       30.39R WCI  13
AINSWORTH      CLOUDY    25  25  97 N14       30.38R FOG     WCI  14
BROKEN BOW     CLOUDY    31  28  89 N8        30.35R WCI  23
O`NEILL        CLOUDY    22  20  93 N10       30.40R FOG     WCI  11
ORD            CLOUDY    27  24  89 NW5       30.37R WCI  22
THEDFORD       CLOUDY    33  31  92 N6        30.35R WCI  27
$$

NEZ041-046>049-061>064-073>077-083>087-121500-
SOUTH CENTRAL NEBRASKA

CITY           SKY/WX    TMP DP  RH WIND       PRES   REMARKS
GRAND ISLAND   CLOUDY    27  23  85 N6        30.40R WCI  20
AURORA         CLOUDY    27  24  87 N7        30.39R WCI  20
HASTINGS       CLOUDY    28  23  81 N9        30.38R WCI  19
HEBRON         CLOUDY    28  25  87 N5        30.40R WCI  23
HOLDREGE       CLOUDY    31  28  90 N7        30.37R WCI  24
KEARNEY *      CLOUDY    28  25  86 N8        30.38R WCI  20
YORK           CLOUDY    27  25  93 N7        30.40R WCI  19
$$

NEZ011>018-030>034-042>045-121500-
NORTHEAST NEBRASKA

CITY           SKY/WX    TMP DP  RH WIND       PRES   REMARKS
NORFOLK        CLOUDY    22  17  81 N14       30.40R WCI   9
ALBION         CLOUDY    25  21  86 N5        30.39R WCI  19
BLAIR          CLOUDY    21  18  86 NW12G18   30.38R WCI   9
COLUMBUS *     CLOUDY    25  12  58 NW8       30.41R WCI  16
FREMONT        CLOUDY    23  18  81 N8        30.41R WCI  13
TEKAMAH        CLOUDY    21  17  84 N15       30.42R WCI   8
WAYNE          CLOUDY    20  15  82 N8        30.41R WCI  10
$$

NEZ050>053-065>068-078-088>093-121500-
SOUTHEAST NEBRASKA

CITY           SKY/WX    TMP DP  RH WIND       PRES   REMARKS
LINCOLN        CLOUDY    24  19  81 N12       30.43R WCI  13
OMAHA EPPLEY   CLOUDY    21  17  84 N13       30.40R WCI   9
BEATRICE       CLOUDY    27  23  84 N15       30.40R WCI  15
FALLS CITY     CLOUDY    28  21  75 NW14      30.38R WCI  17
NEBRASKA CITY  CLOUDY    24  19  81 N16       30.40R WCI  10
PLATTSMOUTH    CLOUDY    22  17  83 N7        30.39R WCI  13
$$

NEZ044-045-051>053-067-121500-
OMAHA AREA

CITY           SKY/WX    TMP DP  RH WIND       PRES   REMARKS
OMAHA EPPLEY   CLOUDY    21  17  84 N13       30.40R WCI   9
BLAIR          CLOUDY    21  18  86 NW12G18   30.38R WCI   9
FREMONT        CLOUDY    23  18  81 N8        30.41R WCI  13
MILLARD        CLOUDY    23  17  79 NW8       30.41R WCI  14
OFFUTT AFB     CLOUDY    21  16  79 N7        30.40R WCI  13
PLATTSMOUTH    CLOUDY    22  17  83 N7        30.39R WCI  13
WAHOO          CLOUDY    24  20  85 N12       30.41R WCI  12
$$




USA.gov is the U.S. government's official web portal to all federal, state and local government web resources and services.